TIANWANG 1B (TW-1B)
1 40927U 15051C   19334.48374466  .00011297  00000-0  15492-3 0  9990
2 40927  97.1177  19.6290 0008861 123.7341 343.3108 15.57472950235633
TIANWANG 1A (TW-1A)
1 40928U 15051D   19334.48058148  .00002236  00000-0  55039-4 0  9992
2 40928  97.1301   2.0779 0010578 185.2836 280.8735 15.41598323234558
LAPAN A2
1 40931U 15052B   19324.69785557 -.00020420  00000-0 -29507-2 0  9996
2 40931   5.9963  31.2247 0013118 192.9224 166.9491 14.76583141224210
LQSAT
1 40958U 15057A   19334.41953520  .00000025  00000-0  11502-4 0  9993
2 40958  97.8810  39.0061 0019495  74.1634 286.1721 14.73098305223052
CHUBUSAT 2
1 41338U 16012B   19333.90414462 +.00000266 +00000-0 +13904-4 0  9993
2 41338 031.0020 181.1368 0013961 289.5080 070.4047 15.00214559207594
CHUBUSAT 3
1 41339U 16012C   19333.98770904  .00000324  00000-0  18384-4 0  9990
2 41339  31.0114 178.4882 0013968 298.4963  61.4266 15.00385766207609
OUFTI-1
1 41458U 16025C   19334.16723223  .00002344  00000-0  12119-3 0  9992
2 41458  98.0998  69.3898 0165740 163.5801 197.0886 15.06252623197320
E-STAR-2
1 41459U 16025D   19334.48997644  .00002316  00000-0  12054-3 0  9995
2 41459  98.0993  69.2884 0167205 164.2118 196.4421 15.05863238197346
AAUSAT 4
1 41460U 16025E   19334.51812963  .00002308  00000-0  11719-3 0  9999
2 41460  98.0969  71.0025 0157012 155.0078 205.8799 15.07928257197503
NUSAT 1
1 41557U 16033B   19334.48517832  .00001045  00000-0  41414-4 0  9991
2 41557  97.4132  61.0121 0015300  77.5519 282.7431 15.27568390195248
BEESAT 4
1 41619U 16040W   19333.87049699 +.00001212 +00000-0 +53646-4 0  9997
2 41619 097.3483 032.8859 0011842 158.5845 201.5890 15.23502112178850
PRATHAM
1 41783U 16059A   19334.42685954  .00000037  00000-0  16378-4 0  9996
2 41783  98.0470  30.1888 0032707 224.2331 135.6256 14.63023483169634
ALSAT 1N
1 41789U 16059G   19334.41141382  .00000075  00000-0  23236-4 0  9996
2 41789  98.0497  32.5341 0027760 212.4592 147.4903 14.64279603169751
NAYIF 1
1 42017U 17008BX  19333.85839273 +.00001320 +00000-0 +54240-4 0  9999
2 42017 097.3859 039.1309 0005052 322.7002 037.3885 15.25937495154958
MAX VALIER SAT
1 42778U 17036P   19333.87783996 +.00000784 +00000-0 +36977-4 0  9996
2 42778 097.3344 027.7587 0012521 015.7146 344.4477 15.22276054135210
